Location: Gibsondale
(40.9931°N, 80.2478°W)
Time: 18:04:54
(UTC+00:00)

Cosmos 2297 Rocket - Pass Details

Date: 29 October 2020
Orbit: 838 x 845 km, 71.0° (Epoch: 23 November)

Event Time Altitude Azimuth Distance (km) Brightness Sun altitude
Rises 22:36:40 0° 342° (NNW) 3,412 5.4 -3.9°
Reaches altitude 10° 22:39:16 10° 349° (N) 2,473 4.6 -4.4°
Maximum altitude 22:44:37 42° 60° (ENE) 1,192 2.6 -5.3°
Drops below altitude 10° 22:49:57 10° 130° (SE) 2,457 4.3 -6.3°
Sets 22:52:31 0° 138° (SE) 3,387 5.0 -6.8°
